sat.trackr.live / text

‹ back to catalog

ONEWEB-0704

NORAD 61609 · 2024-188R

PAYLOAD ACTIVE UNKNOWN

§ Identity

Operator
Country
UK
Launch date
2024-10-20
Launch site
AFWTR
Launch vehicle
Mass (kg)
RCS (m²)

Purposes: comms

External: N2YO · Heavens-Above · Gunter

§ Orbital elements

Epoch: 2026-09-19T14:23:52.163520Z

Period
109.89 min
Inclination
87.8911°
Eccentricity
0.0000712
Mean motion
13.10376745 rev/d
Perigee alt
1,221.2 km
Apogee alt
1,222.2 km
Semi-major
7,599.8 km
B*
1.2397e-4
RAAN
17.4646°
Arg perigee
108.4617°
Mean anomaly
251.6588°
Rev number
9,565

§ Raw data

ONEWEB-07041 61609U 24188R   26262.59990930  .00000056  00000+0  12397-3 0  99922 61609  87.8911  17.4646 0000712 108.4617 251.6588 13.10376745 95650

JSON: /api/v1/satellites/61609 · /tle

For live sub-satellite position, see the globe view (requires WebGL).

§ Visibility from observer

Set your observer location to see the next 7 days of passes ≥ 10°. The values pass through the URL so the page stays shareable.

No JS? Fill the form by hand. The geolocation button needs JavaScript.